DW1546 Weather Reports


Display with metric or nautical units.
time (UTC)temp
F
wind
direction
speed
MPH
gust
MPH
rain 1hr
in
rain 24hr
in
rain mn
in
humidity
%
barometer
mb
20260507104550 51 11 0.0 0.0 0.00 0.00 0.08 95 1012.6
20260507103053 51 11 0.0 0.0 0.00 0.00 0.08 95 1012.4
20260507101548 51 11 0.0 0.0 0.00 0.00 0.08 95 1012.0
20260507100046 51 11 0.0 0.0 0.00 0.00 0.08 95 1011.9
20260507094544 52 11 0.0 0.0 0.00 0.00 0.08 94 1012.0
20260507093045 52 11 0.0 0.0 0.00 0.00 0.08 94 1011.9
20260507091544 52 11 0.0 0.0 0.00 0.00 0.08 94 1012.1
20260507090042 52 11 0.0 0.0 0.00 0.00 0.08 94 1012.0
20260507084545 52 11 0.0 0.0 0.00 0.00 0.08 94 1011.6
20260507083038 52 11 0.0 0.0 0.00 0.00 0.08 94 1011.5
20260507081541 52 11 0.0 0.0 0.00 0.00 0.08 94 1011.1
20260507080042 52 11 0.0 0.0 0.00 0.00 0.08 93 1011.1
20260507074537 52 11 0.0 0.0 0.00 0.00 0.08 93 1010.9
20260507073034 53 10 0.0 0.0 0.00 0.00 0.08 93 1010.8
20260507071531 54 38 0.0 0.0 0.00 0.00 0.08 93 1010.8
20260507070030 54 63 0.0 0.0 0.00 0.00 0.08 93 1011.0
20260507064528 54 63 0.0 0.0 0.00 0.00 0.07 93 1011.1
20260507063028 55 63 0.0 0.0 0.00 0.00 0.07 93 1010.7
20260507061525 55 63 0.0 0.0 0.00 0.00 0.07 92 1010.8
20260507060024 56 63 0.0 0.0 0.00 0.00 0.07 92 1011.0
20260507054522 56 63 0.0 0.0 0.00 0.00 0.07 92 1011.2
20260507053021 56 63 0.0 0.0 0.00 0.00 0.07 91 1011.4
20260507051519 57 63 0.0 0.0 0.00 0.00 0.07 90 1011.1
20260507050024 58 83 0.0 0.0 0.00 0.00 0.06 88 1011.2
20260507044511 59 85 0.0 0.0 0.00 0.00 0.03 86 1011.5
20260507043019 59 85 0.0 0.0 0.00 0.00 0.00 84 1010.9
20260507041506 60 11 0.0 0.0 0.00 0.00 0.00 83 1010.9
20260507040004 61 11 0.0 0.0 0.00 0.00 0.00 83 1010.4
20260507034601 61 11 0.0 0.0 0.00 0.00 0.15 82 1010.1
20260507033100 61 11 0.0 0.0 0.00 0.00 0.15 82 1010.2
20260507031600 62 11 0.0 0.0 0.00 0.00 0.15 81 1010.2
20260507030200 62 11 0.0 0.0 0.00 0.00 0.15 81 1010.1
20260507024559 62 11 0.0 0.0 0.00 0.00 0.15 82 1009.9
20260507023109 63 11 0.0 0.0 0.00 0.00 0.15 84 1009.9
20260507021558 64 9 0.0 0.0 0.00 0.00 0.15 85 1009.7
20260507020104 65 219 0.0 0.0 0.00 0.00 0.15 86 1009.5
20260507014558 65 219 0.0 0.0 0.00 0.00 0.15 86 1009.1
20260507013057 66 219 0.0 0.0 0.00 0.00 0.15 85 1009.7
20260507011556 66 219 0.0 0.0 0.00 0.00 0.15 86 1009.7
20260507010056 67 219 0.0 0.0 0.00 0.00 0.15 85 1009.8
20260507004555 67 219 0.0 0.0 0.00 0.00 0.15 84 1009.1
20260507003111 67 219 0.0 0.0 0.00 0.00 0.15 84 1009.0
20260507001613 68 219 0.0 0.0 0.00 0.00 0.15 83 1008.9
20260507000056 68 219 0.0 0.0 0.00 0.00 0.15 82 1008.8
20260506234555 68 219 0.0 0.0 0.00 0.00 0.15 82 1008.6
20260506233055 68 219 0.0 0.0 0.00 0.00 0.15 81 1008.5
20260506231604 68 219 0.0 0.0 0.00 0.00 0.15 80 1008.2
20260506224552 69 219 0.0 0.0 0.00 0.00 0.15 80 1008.2
20260506223051 69 219 0.0 0.0 0.00 0.00 0.15 80 1008.1
20260506221605 69 219 0.0 0.0 0.00 0.00 0.15 79 1008.4
20260506220051 69 219 1.0 0.0 0.00 0.00 0.15 78 1008.2
20260506214554 69 226 0.0 0.0 0.00 0.00 0.15 77 1008.3
20260506213049 69 225 1.0 0.0 0.00 0.00 0.15 77 1007.8
20260506211549 69 246 1.0 0.0 0.00 0.00 0.15 77 1007.9
20260506210055 69 238 0.0 0.0 0.00 0.00 0.15 77 1007.7
20260506204550 69 239 1.0 0.0 0.00 0.00 0.15 77 1007.5
20260506203049 70 240 1.0 0.0 0.00 0.00 0.15 76 1007.7
20260506201547 70 238 2.0 0.0 0.00 0.00 0.15 75 1007.5
20260506200053 70 288 2.0 0.0 0.00 0.00 0.15 75 1007.7
20260506194544 70 248 2.0 0.0 0.00 0.00 0.15 76 1007.7
20260506193046 69 213 3.0 0.0 0.00 0.00 0.15 77 1007.7
20260506191541 68 275 2.0 0.0 0.00 0.00 0.15 79 1007.9
20260506190040 67 197 0.0 0.0 0.00 0.00 0.15 82 1008.1
20260506184544 66 249 2.0 0.0 0.00 0.00 0.15 84 1008.4
20260506183036 65 199 3.0 0.0 0.00 0.00 0.15 85 1008.4
20260506181541 65 300 1.0 0.0 0.00 0.00 0.15 86 1008.5
20260506180035 64 197 2.0 0.0 0.00 0.00 0.15 87 1008.6
20260506174536 64 221 1.0 0.0 0.00 0.00 0.15 88 1008.6
20260506173033 63 210 1.0 0.0 0.00 0.00 0.15 90 1008.5
20260506171534 63 211 2.0 0.0 0.00 0.00 0.15 91 1008.8
20260506170037 62 219 2.0 0.0 0.00 0.00 0.15 93 1008.8
20260506164544 61 210 2.0 0.0 0.00 0.00 0.15 93 1008.9
20260506163028 61 181 3.0 0.0 0.00 0.00 0.15 94 1008.9
20260506161527 61 193 2.0 0.0 0.00 0.00 0.15 94 1009.1
20260506160030 60 205 3.0 0.0 0.00 0.00 0.15 94 1009.2
20260506154524 60 153 2.0 0.0 0.00 0.00 0.15 95 1009.2
20260506153023 60 213 1.0 0.0 0.00 0.00 0.14 95 1009.1
20260506151522 60 252 2.0 0.0 0.00 0.00 0.14 94 1009.3
20260506150021 60 198 2.0 0.0 0.00 0.00 0.14 94 1009.8
20260506144524 60 209 2.0 0.0 0.00 0.00 0.14 94 1010.0
20260506143019 60 223 1.0 0.0 0.00 0.00 0.13 93 1009.9
20260506141526 60 208 1.0 0.0 0.00 0.00 0.11 93 1009.9
20260506140014 61 234 1.0 0.0 0.00 0.00 0.08 92 1009.8
20260506134511 61 227 1.0 0.0 0.00 0.00 0.06 91 1010.0
20260506133011 61 221 1.0 0.0 0.00 0.00 0.04 90 1010.5
20260506131511 62 209 0.0 0.0 0.00 0.00 0.04 89 1010.1
20260506130008 62 209 1.0 0.0 0.00 0.00 0.02 87 1009.9
20260506124505 62 216 0.0 0.0 0.00 0.00 0.01 85 1009.7
20260506123004 63 217 1.0 0.0 0.00 0.00 0.00 83 1009.8
20260506121601 63 226 1.0 0.0 0.00 0.00 0.00 81 1010.2
20260506120107 64 189 1.0 0.0 0.00 0.00 0.00 78 1010.3
20260506114555 64 224 1.0 0.0 0.00 0.00 0.00 77 1010.2
20260506113054 64 218 2.0 0.0 0.00 0.00 0.00 76 1009.8
20260506111554 64 222 1.0 0.0 0.00 0.00 0.00 76 1009.7